When you browse on this site, cookies collect data to enhance your experience and personalize the content and advertising you see.
Visit our Privacy Policy to learn more. By continuing to use the site, you agree to this use of cookies and data.
  • en Suisse
  • Liste des pays
  • À 7 jours
  • Température de l'eau
  • Carte météo
  • Widgets météo
  • user-avatar
    Se connecter

    Météo par heure à Bruhl

    Ce jour, 28 Mai, Jeudi

    Heure Température Précipitation Vent Pression Humidité
    00:00 +15°C° 0 mm 2 m/s 767 mmHg 85%
    01:00 +14°C° 0 mm 2 m/s 767 mmHg 84%
    02:00 +12°C° 0 mm 3 m/s 767 mmHg 83%
    03:00 +10°C° 0 mm 3 m/s 767 mmHg 82%
    04:00 +11°C° 0 mm 3 m/s 767 mmHg 79%
    05:00 +12°C° 0 mm 3 m/s 767 mmHg 77%
    06:00 +12°C° 0 mm 3 m/s 767 mmHg 75%
    07:00 +14°C° 0 mm 3 m/s 767 mmHg 66%
    08:00 +16°C° 0 mm 3 m/s 767 mmHg 56%
    09:00 +17°C° 0 mm 3 m/s 767 mmHg 47%
    10:00 +18°C° 0 mm 4 m/s 767 mmHg 44%
    11:00 +19°C° 0 mm 4 m/s 767 mmHg 41%
    12:00 +20°C° 0 mm 4 m/s 767 mmHg 38%
    13:00 +20°C° 0 mm 4 m/s 766 mmHg 39%
    14:00 +21°C° 0 mm 4 m/s 766 mmHg 39%
    15:00 +21°C° 0 mm 4 m/s 765 mmHg 39%
    16:00 +20°C° 0 mm 4 m/s 765 mmHg 45%
    17:00 +19°C° 0 mm 4 m/s 765 mmHg 50%
    18:00 +18°C° 0 mm 4 m/s 765 mmHg 56%
    19:00 +16°C° 0 mm 3 m/s 765 mmHg 60%
    20:00 +13°C° 0 mm 3 m/s 766 mmHg 64%
    21:00 +12°C° 0 mm 3 m/s 766 mmHg 68%
    22:00 +12°C° 0 mm 2 m/s 766 mmHg 72%
    23:00 +10°C° 0 mm 2 m/s 766 mmHg 77%

    Demain, 29 Mai, Vendredi

    Heure Température Précipitation Vent Pression Humidité
    00:00 +9°C° 0 mm 2 m/s 766 mmHg 81%
    01:00 +10°C° 0 mm 1 m/s 766 mmHg 83%
    02:00 +9°C° 0 mm 1 m/s 766 mmHg 85%
    03:00 +9°C° 0 mm 1 m/s 766 mmHg 87%
    04:00 +10°C° 0 mm 1 m/s 765 mmHg 82%
    05:00 +12°C° 0 mm 1 m/s 765 mmHg 77%
    06:00 +13°C° 0 mm 1 m/s 765 mmHg 73%
    07:00 +15°C° 0 mm 1 m/s 765 mmHg 65%
    08:00 +17°C° 0 mm 2 m/s 765 mmHg 56%
    09:00 +19°C° 0 mm 2 m/s 765 mmHg 48%
    10:00 +20°C° 0 mm 2 m/s 764 mmHg 43%
    11:00 +21°C° 0 mm 2 m/s 764 mmHg 39%
    12:00 +22°C° 0 mm 3 m/s 763 mmHg 34%
    13:00 +22°C° 0 mm 3 m/s 763 mmHg 35%
    14:00 +22°C° 0 mm 3 m/s 762 mmHg 36%
    15:00 +23°C° 0 mm 4 m/s 762 mmHg 37%
    16:00 +22°C° 0 mm 3 m/s 762 mmHg 42%
    17:00 +20°C° 0 mm 3 m/s 761 mmHg 47%
    18:00 +19°C° 0 mm 3 m/s 761 mmHg 52%
    19:00 +18°C° 0 mm 3 m/s 761 mmHg 55%
    20:00 +16°C° 0 mm 3 m/s 761 mmHg 58%
    21:00 +13°C° 0 mm 3 m/s 762 mmHg 60%
    22:00 +13°C° 0 mm 3 m/s 762 mmHg 65%
    23:00 +12°C° 0 mm 3 m/s 762 mmHg 69%

    Après-demain, 30 Mai, Samedi

    Heure Température Précipitation Vent Pression Humidité
    00:00 +12°C° 0 mm 2 m/s 762 mmHg 73%
    01:00 +10°C° 0 mm 2 m/s 762 mmHg 76%
    02:00 +10°C° 0 mm 2 m/s 762 mmHg 78%
    03:00 +10°C° 0 mm 1 m/s 762 mmHg 81%
    04:00 +12°C° 0 mm 1 m/s 762 mmHg 76%
    05:00 +13°C° 0 mm 1 m/s 762 mmHg 71%
    06:00 +14°C° 0 mm 1 m/s 762 mmHg 66%
    07:00 +16°C° 0 mm 2 m/s 762 mmHg 60%
    08:00 +17°C° 0 mm 2 m/s 762 mmHg 54%
    09:00 +19°C° 0 mm 3 m/s 762 mmHg 47%
    10:00 +20°C° 0 mm 3 m/s 761 mmHg 46%
    11:00 +20°C° 0 mm 3 m/s 761 mmHg 44%
    12:00 +20°C° 0 mm 3 m/s 761 mmHg 42%
    13:00 +21°C° 0 mm 3 m/s 761 mmHg 42%
    14:00 +21°C° 0 mm 3 m/s 760 mmHg 43%
    15:00 +21°C° 0 mm 3 m/s 760 mmHg 43%
    16:00 +20°C° 0 mm 3 m/s 760 mmHg 47%
    17:00 +19°C° 0 mm 3 m/s 760 mmHg 51%
    18:00 +18°C° 0 mm 2 m/s 760 mmHg 55%
    19:00 +17°C° 0 mm 2 m/s 760 mmHg 59%
    20:00 +16°C° 0 mm 2 m/s 760 mmHg 62%
    21:00 +15°C° 0 mm 2 m/s 761 mmHg 66%
    22:00 +14°C° 0 mm 2 m/s 761 mmHg 70%
    23:00 +13°C° 0 mm 1 m/s 760 mmHg 74%

    31 Mai, Dimanche

    Heure Température Précipitation Vent Pression Humidité
    00:00 +12°C° 0 mm 1 m/s 760 mmHg 77%
    01:00 +12°C° 0 mm 1 m/s 760 mmHg 80%
    02:00 +11°C° 0 mm 1 m/s 760 mmHg 82%
    03:00 +11°C° 0 mm 1 m/s 760 mmHg 84%
    04:00 +12°C° 0 mm 1 m/s 760 mmHg 79%
    05:00 +13°C° 0 mm 1 m/s 760 mmHg 75%
    06:00 +14°C° 0 mm 2 m/s 760 mmHg 70%
    07:00 +16°C° 0 mm 2 m/s 760 mmHg 62%
    08:00 +17°C° 0 mm 2 m/s 760 mmHg 55%
    09:00 +18°C° 0 mm 3 m/s 760 mmHg 47%
    10:00 +19°C° 0 mm 3 m/s 760 mmHg 44%
    11:00 +21°C° 0 mm 3 m/s 760 mmHg 42%
    12:00 +22°C° 0 mm 3 m/s 759 mmHg 39%
    13:00 +22°C° 0 mm 3 m/s 759 mmHg 41%
    14:00 +22°C° 0 mm 3 m/s 759 mmHg 43%
    15:00 +22°C° 0 mm 4 m/s 759 mmHg 45%
    16:00 +21°C° 0 mm 4 m/s 759 mmHg 49%
    17:00 +20°C° 0 mm 4 m/s 759 mmHg 54%
    18:00 +19°C° 0 mm 4 m/s 759 mmHg 58%
    19:00 +18°C° 0 mm 3 m/s 759 mmHg 62%
    20:00 +16°C° 0 mm 2 m/s 759 mmHg 67%
    21:00 +15°C° 0 mm 1 m/s 760 mmHg 72%
    22:00 +15°C° 0 mm 1 m/s 760 mmHg 73%
    23:00 +14°C° 0 mm 1 m/s 759 mmHg 74%

    1 Juin, Lundi

    Heure Température Précipitation Vent Pression Humidité
    00:00 +13°C° 0 mm 0 m/s 759 mmHg 75%
    01:00 +14°C° 0 mm 1 m/s 759 mmHg 77%
    02:00 +13°C° 0 mm 1 m/s 759 mmHg 80%
    03:00 +13°C° 0 mm 1 m/s 759 mmHg 82%
    04:00 +14°C° 0 mm 1 m/s 759 mmHg 78%
    05:00 +15°C° 0 mm 1 m/s 759 mmHg 74%
    06:00 +16°C° 0 mm 1 m/s 759 mmHg 70%
    07:00 +19°C° 0 mm 1 m/s 759 mmHg 64%
    08:00 +20°C° 0 mm 2 m/s 759 mmHg 58%
    09:00 +23°C° 0 mm 2 m/s 758 mmHg 52%
    10:00 +24°C° 0 mm 2 m/s 758 mmHg 51%
    11:00 +25°C° 0 mm 2 m/s 758 mmHg 50%
    12:00 +26°C° 0 mm 3 m/s 757 mmHg 48%
    13:00 +26°C° 0.1 mm 3 m/s 757 mmHg 50%
    14:00 +26°C° 0.1 mm 3 m/s 757 mmHg 52%
    15:00 +26°C° 0.1 mm 3 m/s 756 mmHg 53%
    16:00 +25°C° 0.1 mm 3 m/s 756 mmHg 57%
    17:00 +25°C° 0.1 mm 3 m/s 756 mmHg 61%
    18:00 +24°C° 0.1 mm 3 m/s 756 mmHg 65%
    19:00 +21°C° 0 mm 3 m/s 756 mmHg 68%
    20:00 +20°C° 0 mm 3 m/s 757 mmHg 71%
    21:00 +18°C° 0 mm 3 m/s 757 mmHg 74%
    22:00 +17°C° 0 mm 3 m/s 757 mmHg 76%
    23:00 +17°C° 0 mm 3 m/s 757 mmHg 77%

    2 Juin, Mardi

    Heure Température Précipitation Vent Pression Humidité
    00:00 +16°C° 0 mm 2 m/s 757 mmHg 79%
    01:00 +16°C° 0 mm 2 m/s 756 mmHg 80%
    02:00 +15°C° 0 mm 2 m/s 756 mmHg 81%
    03:00 +14°C° 0 mm 2 m/s 756 mmHg 82%
    04:00 +15°C° 0 mm 2 m/s 756 mmHg 78%
    05:00 +16°C° 0 mm 2 m/s 756 mmHg 74%
    06:00 +18°C° 0 mm 2 m/s 756 mmHg 71%
    07:00 +19°C° 0 mm 3 m/s 756 mmHg 64%
    08:00 +21°C° 0 mm 3 m/s 756 mmHg 56%
    09:00 +23°C° 0 mm 4 m/s 756 mmHg 49%
    10:00 +25°C° 0 mm 4 m/s 756 mmHg 46%
    11:00 +25°C° 0 mm 4 m/s 755 mmHg 43%
    12:00 +26°C° 0 mm 4 m/s 755 mmHg 40%
    13:00 +27°C° 0 mm 4 m/s 755 mmHg 40%
    14:00 +27°C° 0 mm 4 m/s 754 mmHg 40%
    15:00 +27°C° 0 mm 4 m/s 754 mmHg 40%
    16:00 +26°C° 0 mm 3 m/s 754 mmHg 45%
    17:00 +25°C° 0 mm 3 m/s 753 mmHg 50%
    18:00 +24°C° 0 mm 3 m/s 753 mmHg 55%
    19:00 +22°C° 0 mm 3 m/s 754 mmHg 60%
    20:00 +20°C° 0 mm 3 m/s 754 mmHg 64%
    21:00 +19°C° 0 mm 4 m/s 754 mmHg 68%
    22:00 +18°C° 0 mm 3 m/s 754 mmHg 71%
    23:00 +17°C° 0 mm 3 m/s 754 mmHg 74%
    Voir plus